Location: Unspecified
(50.0830°N, 0.0000°E)
Time: 07:14:36
(UTC+00:00)

Envisat - Pass Details

Date: 25 November 2019
Orbit: 764 x 766 km, 98.1° (Epoch: 16 December)

Event Time Altitude Azimuth Distance (km) Brightness Sun altitude
Rises 05:35:34 0° 27° (NNE) 3,244 6.4 -17.5°
Reaches altitude 10° 05:38:42 10° 47° (NE) 2,311 5.9 -17.0°
Maximum altitude 05:42:00 17° 88° (E) 1,856 6.0 -16.5°
Drops below altitude 10° 05:45:17 10° 129° (SE) 2,299 6.5 -16.0°
Sets 05:48:22 0° 149° (SSE) 3,219 6.9 -15.5°
